Location: Bermeries
(50.2863°N, 3.7551°E)
Time: 19:54:00
(UTC+00:00)

Cosmos 1741 Rocket - Pass Details

Date: 23 May 2024
Orbit: 758 x 781 km, 74.0° (Epoch: 14 June)

Event Time Altitude Azimuth Distance (km) Brightness Sun altitude
Exits shadow 01:51:21 19° 197° (SSW) 1,760 5.3 -13.5°
Maximum altitude 01:55:09 81° 112° (ESE) 783 4.0 -13.2°
Drops below altitude 10° 02:00:26 10° 26° (NNE) 2,325 8.0 -12.7°
Sets 02:02:50 0° 25° (NNE) 3,260 9.2 -12.5°
